• In Belarus
  • List of Countries
  • For 7 days
  • Water Temperature
  • Satellite Maps
  • Weather Map
  • Weather Widgets
  • user-avatar
    Login

    Hourly Weather Chirkino

    Today, 22 October, Monday

    Time Temperature Precipitation Wind Pressure Humidity
    00:00 +2°C° 0 mm 2 mps 749 mmHg 87%
    01:00 +2°C° 0 mm 2 mps 748 mmHg 89%
    02:00 +2°C° 0 mm 2 mps 748 mmHg 90%
    03:00 +1°C° 0 mm 2 mps 748 mmHg 91%
    04:00 +1°C° 0 mm 2 mps 748 mmHg 92%
    05:00 +1°C° 0 mm 2 mps 747 mmHg 92%
    06:00 +2°C° 0 mm 2 mps 747 mmHg 90%
    07:00 +1°C° 0 mm 3 mps 747 mmHg 88%
    08:00 +1°C° 0 mm 3 mps 747 mmHg 86%
    09:00 +3°C° 0 mm 3 mps 746 mmHg 79%
    10:00 +4°C° 0 mm 4 mps 746 mmHg 73%
    11:00 +6°C° 0 mm 4 mps 745 mmHg 67%
    12:00 +6°C° 0 mm 4 mps 744 mmHg 65%
    13:00 +7°C° 0 mm 4 mps 744 mmHg 64%
    14:00 +7°C° 0 mm 5 mps 743 mmHg 62%
    15:00 +6°C° 0 mm 4 mps 742 mmHg 67%
    16:00 +5°C° 0 mm 4 mps 742 mmHg 71%
    17:00 +4°C° 0 mm 4 mps 741 mmHg 76%
    18:00 +4°C° 0 mm 4 mps 741 mmHg 77%
    19:00 +4°C° 0 mm 4 mps 740 mmHg 79%
    20:00 +4°C° 0 mm 4 mps 740 mmHg 81%
    21:00 +4°C° 0 mm 4 mps 739 mmHg 83%
    22:00 +3°C° 0 mm 4 mps 738 mmHg 84%
    23:00 +3°C° 0 mm 4 mps 738 mmHg 86%

    Tomorrow, 23 October, Tuesday

    Time Temperature Precipitation Wind Pressure Humidity
    00:00 +3°C° 0.2 mm 4 mps 737 mmHg 87%
    01:00 +3°C° 0.2 mm 4 mps 737 mmHg 89%
    02:00 +3°C° 0.2 mm 4 mps 736 mmHg 90%
    03:00 +3°C° 0.6 mm 3 mps 736 mmHg 91%
    04:00 +4°C° 0.6 mm 3 mps 736 mmHg 91%
    05:00 +4°C° 0.6 mm 3 mps 735 mmHg 92%
    06:00 +4°C° 0.1 mm 3 mps 735 mmHg 92%
    07:00 +4°C° 0.1 mm 3 mps 735 mmHg 91%
    08:00 +3°C° 0.1 mm 3 mps 735 mmHg 91%
    09:00 +4°C° 0 mm 3 mps 735 mmHg 83%
    10:00 +5°C° 0 mm 3 mps 735 mmHg 76%
    11:00 +7°C° 0 mm 3 mps 734 mmHg 69%
    12:00 +7°C° 0 mm 2 mps 734 mmHg 65%
    13:00 +7°C° 0 mm 2 mps 733 mmHg 62%
    14:00 +7°C° 0 mm 2 mps 733 mmHg 59%
    15:00 +6°C° 0 mm 2 mps 732 mmHg 64%
    16:00 +5°C° 0 mm 2 mps 731 mmHg 68%
    17:00 +6°C° 0 mm 1 mps 730 mmHg 73%
    18:00 +4°C° 0 mm 2 mps 730 mmHg 76%
    19:00 +4°C° 0 mm 2 mps 729 mmHg 79%
    20:00 +3°C° 0 mm 2 mps 729 mmHg 82%
    21:00 +3°C° 0 mm 2 mps 728 mmHg 84%
    22:00 +2°C° 0 mm 2 mps 727 mmHg 86%
    23:00 +2°C° 0 mm 2 mps 726 mmHg 88%

    Day after tomorrow, 24 October, Wednesday

    Time Temperature Precipitation Wind Pressure Humidity
    00:00 +1°C° 0 mm 3 mps 725 mmHg 88%
    01:00 +1°C° 0 mm 3 mps 724 mmHg 89%
    02:00 0°C° 0 mm 3 mps 723 mmHg 90%
    03:00 0°C° 0 mm 4 mps 722 mmHg 89%
    04:00 0°C° 0 mm 4 mps 721 mmHg 89%
    05:00 0°C° 0 mm 4 mps 720 mmHg 88%
    06:00 0°C° 0.1 mm 4 mps 720 mmHg 87%
    07:00 +1°C° 0.1 mm 5 mps 719 mmHg 85%
    08:00 +1°C° 0.1 mm 5 mps 719 mmHg 84%
    09:00 +1°C° 0.2 mm 5 mps 718 mmHg 83%
    10:00 +2°C° 0.2 mm 5 mps 718 mmHg 82%
    11:00 +2°C° 0.2 mm 5 mps 718 mmHg 81%
    12:00 +2°C° 0.4 mm 5 mps 718 mmHg 81%
    13:00 +3°C° 0.4 mm 5 mps 718 mmHg 81%
    14:00 +4°C° 0.4 mm 4 mps 718 mmHg 82%
    15:00 +3°C° 0.4 mm 4 mps 718 mmHg 84%
    16:00 +3°C° 0.4 mm 4 mps 719 mmHg 86%
    17:00 +3°C° 0.4 mm 4 mps 719 mmHg 88%
    18:00 +3°C° 0.2 mm 4 mps 719 mmHg 88%
    19:00 +3°C° 0.2 mm 3 mps 720 mmHg 89%
    20:00 +3°C° 0.2 mm 3 mps 720 mmHg 90%
    21:00 +3°C° 0.2 mm 3 mps 720 mmHg 91%
    22:00 +3°C° 0.2 mm 3 mps 721 mmHg 92%
    23:00 +3°C° 0.2 mm 3 mps 721 mmHg 93%

    25 October, Thursday

    Time Temperature Precipitation Wind Pressure Humidity
    00:00 +3°C° 0.1 mm 3 mps 721 mmHg 93%
    01:00 +3°C° 0.1 mm 3 mps 721 mmHg 93%
    02:00 +3°C° 0.1 mm 3 mps 722 mmHg 93%
    03:00 +3°C° 0.1 mm 3 mps 722 mmHg 92%
    04:00 +3°C° 0.1 mm 4 mps 722 mmHg 91%
    05:00 +3°C° 0.1 mm 4 mps 722 mmHg 91%
    06:00 +3°C° 0.1 mm 4 mps 722 mmHg 90%
    07:00 +1°C° 0.1 mm 4 mps 723 mmHg 88%
    08:00 +1°C° 0.1 mm 5 mps 723 mmHg 87%
    09:00 +2°C° 0 mm 5 mps 723 mmHg 85%
    10:00 +2°C° 0 mm 5 mps 723 mmHg 83%
    11:00 +2°C° 0 mm 6 mps 723 mmHg 81%
    12:00 +2°C° 0 mm 6 mps 723 mmHg 78%
    13:00 +2°C° 0 mm 6 mps 722 mmHg 75%
    14:00 +2°C° 0 mm 7 mps 722 mmHg 72%
    15:00 +2°C° 0 mm 6 mps 722 mmHg 73%
    16:00 +1°C° 0 mm 6 mps 723 mmHg 74%
    17:00 -1°C° 0 mm 6 mps 723 mmHg 75%
    18:00 0°C° 0 mm 5 mps 723 mmHg 77%
    19:00 0°C° 0 mm 5 mps 723 mmHg 79%
    20:00 -1°C° 0 mm 5 mps 723 mmHg 81%
    21:00 -1°C° 0 mm 5 mps 723 mmHg 83%
    22:00 -1°C° 0 mm 5 mps 724 mmHg 85%
    23:00 -1°C° 0 mm 4 mps 724 mmHg 87%

    26 October, Friday

    Time Temperature Precipitation Wind Pressure Humidity
    00:00 0°C° 0 mm 4 mps 724 mmHg 86%
    01:00 0°C° 0 mm 4 mps 725 mmHg 86%
    02:00 0°C° 0 mm 4 mps 725 mmHg 85%
    03:00 0°C° 0 mm 4 mps 725 mmHg 86%
    04:00 0°C° 0 mm 4 mps 726 mmHg 86%
    05:00 0°C° 0 mm 4 mps 726 mmHg 86%
    06:00 0°C° 0 mm 4 mps 727 mmHg 86%
    07:00 0°C° 0 mm 4 mps 727 mmHg 85%
    08:00 0°C° 0 mm 4 mps 727 mmHg 84%
    09:00 +1°C° 0 mm 4 mps 728 mmHg 82%
    10:00 +1°C° 0 mm 4 mps 728 mmHg 79%
    11:00 +3°C° 0 mm 4 mps 729 mmHg 77%
    12:00 +3°C° 0 mm 4 mps 729 mmHg 76%
    13:00 +3°C° 0 mm 4 mps 730 mmHg 74%
    14:00 +3°C° 0 mm 4 mps 730 mmHg 73%
    15:00 +3°C° 0 mm 3 mps 730 mmHg 75%
    16:00 +3°C° 0 mm 3 mps 731 mmHg 78%
    17:00 +3°C° 0 mm 2 mps 731 mmHg 81%
    18:00 +2°C° 0 mm 3 mps 732 mmHg 84%
    19:00 +2°C° 0 mm 3 mps 732 mmHg 87%
    20:00 +1°C° 0 mm 3 mps 732 mmHg 90%
    21:00 +1°C° 0 mm 3 mps 732 mmHg 91%
    22:00 +1°C° 0 mm 3 mps 732 mmHg 92%
    23:00 +1°C° 0 mm 3 mps 732 mmHg 93%

    27 October, Saturday

    Time Temperature Precipitation Wind Pressure Humidity
    00:00 +1°C° 0.1 mm 3 mps 732 mmHg 92%
    01:00 +1°C° 0.1 mm 4 mps 731 mmHg 90%
    02:00 +1°C° 0.1 mm 5 mps 731 mmHg 89%
    03:00 +2°C° 0.4 mm 5 mps 731 mmHg 88%
    04:00 +3°C° 0.4 mm 5 mps 730 mmHg 87%
    05:00 +4°C° 0.4 mm 6 mps 730 mmHg 87%
    06:00 +4°C° 0.1 mm 6 mps 730 mmHg 86%
    07:00 +5°C° 0.1 mm 6 mps 730 mmHg 86%
    08:00 +5°C° 0.1 mm 6 mps 731 mmHg 86%
    09:00 +6°C° 0.1 mm 5 mps 731 mmHg 85%
    10:00 +6°C° 0.1 mm 5 mps 731 mmHg 85%
    11:00 +6°C° 0.1 mm 5 mps 732 mmHg 84%
    12:00 +6°C° 0 mm 5 mps 732 mmHg 82%
    13:00 +7°C° 0 mm 5 mps 732 mmHg 80%
    14:00 +7°C° 0 mm 4 mps 733 mmHg 78%
    15:00 +7°C° 0 mm 4 mps 733 mmHg 80%
    16:00 +7°C° 0 mm 3 mps 734 mmHg 83%
    17:00 +7°C° 0 mm 3 mps 734 mmHg 85%
    18:00 +5°C° 0 mm 3 mps 734 mmHg 87%
    19:00 +5°C° 0 mm 3 mps 734 mmHg 90%
    20:00 +5°C° 0 mm 3 mps 735 mmHg 92%
    21:00 +6°C° 0 mm 2 mps 735 mmHg 93%
    22:00 +6°C° 0 mm 2 mps 735 mmHg 94%
    23:00 +5°C° 0 mm 2 mps 735 mmHg 94%

    28 October, Sunday

    Time Temperature Precipitation Wind Pressure Humidity
    00:00 +5°C° 0.3 mm 2 mps 734 mmHg 95%
    01:00 +6°C° 0.3 mm 2 mps 734 mmHg 95%
    02:00 +6°C° 0.3 mm 2 mps 734 mmHg 96%
    03:00 +6°C° 1.5 mm 2 mps 733 mmHg 96%
    04:00 +6°C° 1.5 mm 2 mps 733 mmHg 96%
    05:00 +5°C° 1.5 mm 3 mps 733 mmHg 97%
    06:00 +5°C° 1.1 mm 3 mps 732 mmHg 96%
    07:00 +7°C° 1.1 mm 3 mps 732 mmHg 96%
    08:00 +7°C° 1.1 mm 2 mps 732 mmHg 96%
    09:00 +8°C° 1 mm 3 mps 732 mmHg 95%
    10:00 +8°C° 1 mm 3 mps 733 mmHg 95%
    11:00 +9°C° 1 mm 3 mps 733 mmHg 94%
    12:00 +9°C° 0.6 mm 3 mps 733 mmHg 94%
    13:00 +8°C° 0.6 mm 3 mps 734 mmHg 94%
    14:00 +8°C° 0.6 mm 3 mps 734 mmHg 94%
    15:00 +8°C° 0.7 mm 3 mps 734 mmHg 94%
    16:00 +7°C° 0.7 mm 3 mps 734 mmHg 94%
    17:00 +7°C° 0.7 mm 3 mps 735 mmHg 93%
    18:00 +7°C° 2.1 mm 3 mps 735 mmHg 93%
    19:00 +5°C° 2.1 mm 3 mps 735 mmHg 93%
    20:00 +5°C° 2.1 mm 3 mps 735 mmHg 93%
    21:00 +4°C° 0.8 mm 4 mps 736 mmHg 92%
    22:00 +4°C° 0.8 mm 4 mps 736 mmHg 92%
    23:00 +4°C° 0.8 mm 4 mps 736 mmHg 91%
    Show more